(341994) = 2008 RP16

Discovered at Kitt Peak on 2008-09-04 by Spacewatch.

Orbit

Orbit type: Main Belt

Note: WebGL enabled browser required.

epoch2023-09-13.0
epoch JD2460200.5
perihelion date2023-11-01.99525
perihelion JD2460250.49525
argument of perihelion (°)49.09222
ascending node (°)248.96334
inclination (°)3.05874
eccentricity0.1648920
perihelion distance (AU)2.0710063
Tisserand w.r.t. Jupiter3.5
ΔV w.r.t. Earth (km/sec)9.1
semimajor axis (AU)2.4799264
mean anomaly (°)347.38247
mean daily motion (°/day)0.25237460
aphelion distance (AU)2.889
period (years)3.91
P-vector [x]0.46932260
P-vector [y]-0.82535721
P-vector [z]-0.31388179
Q-vector [x]0.88162120
Q-vector [y]0.41792511
Q-vector [z]0.21927761
absolute magnitude17.81
phase slope0.15
uncertainty0
referenceMPEC 2023-N34
observations used203
oppositions12
arc length (days)8875
first opposition used1999
last opposition used2023
residual rms (arc-secs)0.76
perturbers coarse indicatorM-v
perturbers precise indicator003Ek
first observation date used1999-03-20.0
last observation date used2023-07-07.0
computer nameMPCLINUX
Minimum Orbit Intersection Distances (in AU)
for orbit epoch: 2460000.5, reference: E2023-M76
Mercury1.62778
Venus1.34644
Earth1.05585
Mars0.65272
Jupiter2.30205
Saturn6.20404
Uranus15.6628
Neptune27.2433

Observations

210 total observations over interval: 1999 03 20.264170 – 2023 07 07.353433
These data are available for download (format description).

Date (UT) J2000 RA J2000 Dec Magn Location Ref
1999 03 20.264170 11 09 00.824 +00 19 00.39 21.63 V 645 – Apache Point-Sloan Digital Sky Survey MPS 284480
1999 03 20.267642 11 09 00.634 +00 19 01.62 22.49   645 – Apache Point-Sloan Digital Sky Survey MPS 284480
2004 08 25.39946 23 14 05.64 +01 10 47.8 20.3 V 691 – Steward Observatory, Kitt Peak-Spacewatch MPS 282632
2004 08 25.42651 23 14 04.33 +01 10 40.4 20.3 V 691 – Steward Observatory, Kitt Peak-Spacewatch MPS 282632
2004 08 25.45379 23 14 03.00 +01 10 33.6 20.3 V 691 – Steward Observatory, Kitt Peak-Spacewatch MPS 282632
2004 09 09.34097 23 01 35.52 -00 07 21.8 20.2 V 691 – Steward Observatory, Kitt Peak-Spacewatch MPS 282632
2004 09 09.38130 23 01 33.35 -00 07 36.4 20.2 V 691 – Steward Observatory, Kitt Peak-Spacewatch MPS 282632
2004 09 09.40811 23 01 31.92 -00 07 45.9 20.2 V 691 – Steward Observatory, Kitt Peak-Spacewatch MPS 282632
2004 09 17.31186 22 55 03.45 -00 55 34.1 20.5 V 691 – Steward Observatory, Kitt Peak-Spacewatch MPS 282632
2004 09 17.31704 22 55 03.18 -00 55 36.0 20.4 V 691 – Steward Observatory, Kitt Peak-Spacewatch MPS 282632
2004 09 17.34102 22 55 02.01 -00 55 44.7 20.2 V 691 – Steward Observatory, Kitt Peak-Spacewatch MPS 282632
2004 09 17.34620 22 55 01.78 -00 55 46.7 20.3 V 691 – Steward Observatory, Kitt Peak-Spacewatch MPS 282632
2004 09 17.36736 22 55 00.72 -00 55 54.2 20.5 V 691 – Steward Observatory, Kitt Peak-Spacewatch MPS 282632
2004 09 17.37255 22 55 00.49 -00 55 56.1 20.2 V 691 – Steward Observatory, Kitt Peak-Spacewatch MPS 282632
2008 08 24.34578 00 25 33.08 +08 11 04.5   691 – Steward Observatory, Kitt Peak-Spacewatch MPS 282632
2008 08 24.36334 00 25 32.65 +08 11 02.2   691 – Steward Observatory, Kitt Peak-Spacewatch MPS 282632
2008 08 24.38090 00 25 32.13 +08 11 01.3   691 – Steward Observatory, Kitt Peak-Spacewatch MPS 282632
2008 09 04.30158 00 19 27.65 +07 41 06.5 20.6 V 691 – Steward Observatory, Kitt Peak-Spacewatch MPS 255969
2008 09 04.31913 00 19 26.89 +07 41 02.2 20.5 V 691 – Steward Observatory, Kitt Peak-Spacewatch MPS 255969
2008 09 04.33671 00 19 26.10 +07 40 58.4 20.7 V 691 – Steward Observatory, Kitt Peak-Spacewatch MPS 255969
2008 09 05.30947 00 18 45.56 +07 37 05.5 20.8 V 691 – Steward Observatory, Kitt Peak-Spacewatch MPS 255969
2008 09 05.33396 00 18 44.43 +07 37 00.0 20.1 V 691 – Steward Observatory, Kitt Peak-Spacewatch MPS 255969
2008 09 05.35154 00 18 43.67 +07 36 55.4 20.7 V 691 – Steward Observatory, Kitt Peak-Spacewatch MPS 255969
2008 09 23.31206 00 03 56.66 +05 57 56.4 19.6 V G96 – Mt. Lemmon Survey MPS 282632
2008 09 23.32005 00 03 56.23 +05 57 53.5 19.8 V G96 – Mt. Lemmon Survey MPS 282632
2008 09 23.32810 00 03 55.80 +05 57 50.2 19.7 V G96 – Mt. Lemmon Survey MPS 282632
2008 09 23.33610 00 03 55.33 +05 57 47.4 19.7 V G96 – Mt. Lemmon Survey MPS 282632
2008 09 23.37022 00 03 53.49 +05 57 34.1 20.3 V G96 – Mt. Lemmon Survey MPS 282632
2008 09 23.37861 00 03 53.02 +05 57 30.9 20.1 V G96 – Mt. Lemmon Survey MPS 282632
2008 09 23.38697 00 03 52.56 +05 57 27.5 20.0 V G96 – Mt. Lemmon Survey MPS 282632
2008 09 23.39538 00 03 52.09 +05 57 24.0 20.2 V G96 – Mt. Lemmon Survey MPS 282632
2011 04 03.44542 13 23 12.567 -12 56 19.34 21.2 w F51 – Pan-STARRS 1, Haleakala MPS 377216
2011 04 03.45933 13 23 11.808 -12 56 14.64 21.1 w F51 – Pan-STARRS 1, Haleakala MPS 377216
2011 04 03.47516 13 23 10.956 -12 56 09.52 21.2 w F51 – Pan-STARRS 1, Haleakala MPS 377216
2011 04 28.33694 13 01 15.040 -10 19 05.34 21.3 w F51 – Pan-STARRS 1, Haleakala MPS 380079
2011 04 28.35104 13 01 14.338 -10 18 59.84 21.2 w F51 – Pan-STARRS 1, Haleakala MPS 380079
2011 04 28.36527 13 01 13.647 -10 18 54.16 21.3 w F51 – Pan-STARRS 1, Haleakala MPS 380079
2011 04 28.37936 13 01 12.949 -10 18 48.74 21.3 w F51 – Pan-STARRS 1, Haleakala MPS 380079
2012 09 21.26850 01 11 19.50 +12 20 31.4 21.5 V 691 – Steward Observatory, Kitt Peak-Spacewatch MPS 431936
2012 09 21.28628 01 11 18.62 +12 20 26.3 21.2 V 691 – Steward Observatory, Kitt Peak-Spacewatch MPS 431936
2012 09 21.30405 01 11 17.73 +12 20 21.3 20.7 V 691 – Steward Observatory, Kitt Peak-Spacewatch MPS 431936
2012 09 26.390729 01 07 10.183 +11 54 01.87 20.6 i F51 – Pan-STARRS 1, Haleakala MPS 433365
2012 09 26.403033 01 07 09.521 +11 53 57.84 20.5 i F51 – Pan-STARRS 1, Haleakala MPS 433365
2012 10 09.351330 00 55 36.590 +10 32 27.36 20.5 w F51 – Pan-STARRS 1, Haleakala MPS 435196
2012 10 09.365449 00 55 35.792 +10 32 21.66 20.4 w F51 – Pan-STARRS 1, Haleakala MPS 435196
2012 10 09.379673 00 55 34.983 +10 32 15.87 20.4 w F51 – Pan-STARRS 1, Haleakala MPS 435196
2012 10 09.393975 00 55 34.173 +10 32 10.01 20.4 w F51 – Pan-STARRS 1, Haleakala MPS 435196
2012 11 04.245186 00 36 51.148 +07 47 55.91 21.2 w F51 – Pan-STARRS 1, Haleakala MPS 441643
2012 11 04.250691 00 36 50.983 +07 47 54.14 21.2 w F51 – Pan-STARRS 1, Haleakala MPS 441643
2012 11 04.259285 00 36 50.746 +07 47 51.73 21.2 w F51 – Pan-STARRS 1, Haleakala MPS 441643
2012 11 04.264799 00 36 50.576 +07 47 49.92 21.3 w F51 – Pan-STARRS 1, Haleakala MPS 441643
2012 11 04.273384 00 36 50.332 +07 47 47.41 21.3 w F51 – Pan-STARRS 1, Haleakala MPS 441643
2012 11 04.278879 00 36 50.173 +07 47 45.62 21.2 w F51 – Pan-STARRS 1, Haleakala MPS 441643
2015 04 23.38935 14 02 48.369 -15 45 52.06 20.6 w F51 – Pan-STARRS 1, Haleakala MPS 603007
2015 04 23.40184 14 02 47.635 -15 45 47.55 20.6 w F51 – Pan-STARRS 1, Haleakala MPS 603007
2015 04 23.41437 14 02 46.913 -15 45 43.04 20.5 w F51 – Pan-STARRS 1, Haleakala MPS 603007
2015 04 23.42685 14 02 46.185 -15 45 38.50 20.5 w F51 – Pan-STARRS 1, Haleakala MPS 603007
2015 04 24.47514 14 01 47.514 -15 39 18.37 20.5 w F51 – Pan-STARRS 1, Haleakala MPS 604518
2015 04 24.48728 14 01 46.807 -15 39 13.87 20.5 w F51 – Pan-STARRS 1, Haleakala MPS 604518
2015 04 24.49940 14 01 46.096 -15 39 09.39 20.4 w F51 – Pan-STARRS 1, Haleakala MPS 604518
2015 04 24.51150 14 01 45.394 -15 39 04.97 20.4 w F51 – Pan-STARRS 1, Haleakala MPS 604518
2015 04 25.13980 14 01 10.61 -15 35 09.7 20.7 V W84 – Cerro Tololo-DECam MPS 1280782
2015 04 25.17420 14 01 08.60 -15 34 57.2   W84 – Cerro Tololo-DECam MPS 1280782
2015 04 25.20864 14 01 06.59 -15 34 44.5   W84 – Cerro Tololo-DECam MPS 1280782
2015 04 25.40550 14 00 55.701 -15 33 37.32 20.2 i F51 – Pan-STARRS 1, Haleakala MPS 604518
2015 04 25.42932 14 00 54.290 -15 33 28.85 20.0 i F51 – Pan-STARRS 1, Haleakala MPS 604518
2015 04 25.44124 14 00 53.607 -15 33 24.33 20.2 i F51 – Pan-STARRS 1, Haleakala MPS 604518
2015 04 25.45428 14 00 52.831 -15 33 19.47 20.5 w F51 – Pan-STARRS 1, Haleakala MPS 604518
2015 04 25.46651 14 00 52.118 -15 33 14.87 20.6 w F51 – Pan-STARRS 1, Haleakala MPS 604518
2015 04 25.47860 14 00 51.414 -15 33 10.45 20.5 w F51 – Pan-STARRS 1, Haleakala MPS 604518
2015 04 25.49072 14 00 50.716 -15 33 05.89 20.4 w F51 – Pan-STARRS 1, Haleakala MPS 604518
2016 08 10.52035 02 04 58.156 +16 11 30.32 21.8 w F51 – Pan-STARRS 1, Haleakala MPS 724866
2016 08 10.53325 02 04 58.658 +16 11 33.70 21.9 w F51 – Pan-STARRS 1, Haleakala MPS 724866
2016 08 10.54620 02 04 59.184 +16 11 36.81 21.7 w F51 – Pan-STARRS 1, Haleakala MPS 724866
2016 08 10.55915 02 04 59.685 +16 11 40.34 22.1 w F51 – Pan-STARRS 1, Haleakala MPS 724866
2016 10 06.51560 01 58 56.090 +15 55 41.60 20.8 w F51 – Pan-STARRS 1, Haleakala MPS 734054
2016 10 06.52813 01 58 55.427 +15 55 37.84 20.9 w F51 – Pan-STARRS 1, Haleakala MPS 734054
2016 10 06.54062 01 58 54.760 +15 55 34.01 20.9 w F51 – Pan-STARRS 1, Haleakala MPS 734054
2016 10 06.55318 01 58 54.096 +15 55 30.24 20.9 w F51 – Pan-STARRS 1, Haleakala MPS 734054
2016 10 12.26682 01 53 50.45 +15 24 10.3 20.5 V G96 – Mt. Lemmon Survey MPS 735999
2016 10 12.27156 01 53 50.21 +15 24 09.3 20.6 V G96 – Mt. Lemmon Survey MPS 735999
2016 10 12.27538 01 53 49.93 +15 24 07.7 20.5 V G96 – Mt. Lemmon Survey MPS 735999
2016 10 12.27916 01 53 49.76 +15 24 05.8 21.5 V G96 – Mt. Lemmon Survey MPS 735999
2016 10 13.26689 01 52 55.16 +15 18 17.9 20.1 V G96 – Mt. Lemmon Survey MPS 735999
2016 10 13.27059 01 52 54.93 +15 18 16.9 20.6 V G96 – Mt. Lemmon Survey MPS 735999
2016 10 13.27343 01 52 54.74 +15 18 15.7 20.5 V G96 – Mt. Lemmon Survey MPS 735999
2016 10 13.27631 01 52 54.61 +15 18 14.7 20.0 V G96 – Mt. Lemmon Survey MPS 735999
2016 10 19.24178 01 47 18.51 +14 41 21.2 20.4 V G96 – Mt. Lemmon Survey MPS 737331
2016 10 19.25114 01 47 18.06 +14 41 18.1 19.5 V G96 – Mt. Lemmon Survey MPS 737331
2016 10 19.25621 01 47 17.68 +14 41 16.3 19.7 V G96 – Mt. Lemmon Survey MPS 737331
